Home > Weather > Amersfoort > Past weeks

Flag for Netherlands Past Weather in Amersfoort, Netherlands — Yesterday and Last 2 Weeks

Now
64 °F

Mostly cloudy.


Feels Like: 64 °F
Forecast: 55 / 62 °F
Wind: 12 mph from Southwest

Location: Deelen

Current Time: Jul 1, 2016 at 1:40:19 PM

Latest Report: Jul 1, 2016 at 12:55 PM


Visibility: N/A

Pressure: 29.89 "Hg

Humidity: 83%

Dew Point: 59 °F

Location of AmersfoortLocation

Past Weather in Amersfoort — Graph

°F

Amersfoort Temperature Yesterday

Maximum temperature yesterday: 66 °F (at 5:25 PM)
Minimum temperature yesterday: 57 °F (at 12:25 AM)
Average temperature yesterday: 61 °F

High & Low Weather Summary for the Past Weeks

 TemperatureHumidityPressure
High86 °F (Jun 23, 5:25 PM)100% (Jun 17, 4:55 AM)30.24 "Hg (Jun 17, 4:55 AM)
Low48 °F (Jun 28, 3:25 AM)46% (Jun 16, 1:55 PM)29.56 "Hg (Jun 16, 5:55 PM)
Average62 °F84%29.97 "Hg
* Reported Jun 16 12:25 PM — Jul 1 12:25 PM, Amersfoort, Weather by CustomWeather, © 2016

Note: Actual official high and low records may vary slightly from our data, if they occured in-between our weather recording intervals... More about our weather records

Advertising

Amersfoort Weather History for the Previous 24 Hours

Scroll right to see more
 ConditionsComfort  
Time TempWeatherWind HumidityBarometerVisibility
12:25 PM
Fri, Jul 1
64 °FMostly cloudy.10 mph83%29.89 "HgN/A
11:55 AM63 °FMore clouds than sun.12 mph88%29.89 "HgN/A
11:25 AM63 °FMostly cloudy.12 mph88%29.89 "HgN/A
10:55 AM63 °FMore clouds than sun.10 mph88%29.86 "HgN/A
10:25 AM63 °FPartly sunny.13 mph88%29.86 "HgN/A
9:55 AM63 °FBroken clouds.10 mph88%29.86 "HgN/A
9:25 AM63 °FPartly sunny.10 mph88%29.86 "HgN/A
8:55 AM63 °FMore clouds than sun.10 mph88%29.86 "HgN/A
8:25 AM61 °FBroken clouds.9 mph94%29.86 "HgN/A
7:55 AM61 °FMore clouds than sun.12 mph94%29.86 "HgN/A
7:25 AM61 °FBroken clouds.10 mph94%29.86 "HgN/A
6:55 AM61 °FSprinkles. Broken clouds.9 mph94%29.86 "Hg5 mi
6:25 AM61 °FDrizzle. Mostly cloudy.13 mph94%29.86 "Hg6 mi
5:55 AM61 °FMostly cloudy.10 mph94%29.86 "HgN/A
5:25 AM61 °FMostly cloudy.10 mph94%29.86 "HgN/A
4:55 AM61 °FOvercast.12 mph94%29.86 "HgN/A
4:25 AM61 °FOvercast.12 mph94%29.86 "HgN/A
3:55 AM61 °FMostly cloudy.12 mph94%29.86 "HgN/A
3:25 AM61 °FMostly cloudy.9 mph88%29.86 "HgN/A
2:55 AM59 °FMostly cloudy.8 mph94%29.86 "HgN/A
2:25 AM59 °FPartly cloudy.9 mph94%29.86 "HgN/A
1:55 AM59 °FPassing clouds.10 mph94%29.86 "HgN/A
1:25 AM59 °FFog.8 mph100%29.86 "Hg4 mi
12:55 AM59 °FFog.6 mph94%29.86 "Hg4 mi
12:25 AM59 °FFog.5 mph94%29.89 "Hg4 mi
11:55 PM
Thu, Jun 30
59 °FFog.3 mph100%29.89 "Hg4 mi
11:25 PM61 °FMostly cloudy.5 mph94%29.89 "HgN/A
10:55 PM63 °FOvercast.5 mph88%29.89 "HgN/A
10:25 PM61 °FOvercast.5 mph94%29.89 "HgN/A
9:55 PM63 °FPartly sunny.6 mph88%29.86 "HgN/A
9:25 PM63 °FPartly sunny.7 mph94%29.86 "HgN/A
8:55 PM63 °FOvercast.7 mph94%29.86 "HgN/A
8:25 PM63 °FBroken clouds.6 mph94%29.86 "HgN/A
7:55 PM63 °FRain showers. Broken clouds.8 mph94%29.86 "Hg4 mi
7:25 PM64 °FLight rain. Broken clouds.10 mph83%29.86 "HgN/A
6:55 PM64 °FCloudy.15 mph83%29.86 "HgN/A
6:25 PM66 °FPartly sunny.16 mph78%29.86 "HgN/A
5:55 PM66 °FBroken clouds.12 mph78%29.86 "HgN/A
5:25 PM66 °FBroken clouds.9 mph78%29.86 "HgN/A
4:55 PM64 °FPartly sunny.12 mph88%29.86 "HgN/A
4:25 PM63 °FBroken clouds.9 mph94%29.86 "HgN/A
3:55 PM64 °FLight rain. Mostly cloudy.12 mph78%29.86 "HgN/A
3:25 PM64 °FMostly cloudy.14 mph78%29.86 "HgN/A
2:55 PM64 °FCloudy.14 mph78%29.86 "HgN/A
1:25 PM64 °FCloudy.12 mph78%29.86 "HgN/A
Weather by CustomWeather, © 2016

See weather overviewHow to use our weather pages